Regional Weather Roundup
Issued by NWS

Home | Current Version | Previous Version | Graphics & Text | Print | Product List | Glossary On
Versions: 1 2 3 4 5 6 7 8 9 10 11 12 13 14 15 16 17 18 19 20 21 22 23 24 25 26 27 28 29 30 31 32 33 34 35 36 37 38 39 40 41 42 43 44 45 46 47 48 49 50
000
ASUS45 KPSR 310100
RWRAZ

ARIZONA HOURLY REGIONAL WEATHER ROUNDUP
NATIONAL WEATHER SERVICE PHOENIX AZ
600 PM MST THU JUL 30 2015

NOTE: FAIR INDICATES FEW OR NO CLOUDS BELOW 12,000 FEET WITH NO
SIGNIFICANT WEATHER AND/OR OBSTRUCTIONS TO VISIBILITY.

AZZ001>003-036-310200-
NORTHWEST ARIZONA

CITY           SKY/WX    TMP DP  RH WIND       PRES   REMARKS
KINGMAN        CLOUDY    84  50  30 VRB5      30.12F
$$

AZZ004>008-015-016-018-310200-
NORTH CENTRAL ARIZONA

CITY           SKY/WX    TMP DP  RH WIND       PRES   REMARKS
GRAND CANYON   PTSUNNY   73  51  46 SE9G20    30.36S
WILLIAMS       CLOUDY    68  55  64 NE12G21   30.44R
PRESCOTT       PTSUNNY   81  57  43 N10       30.22S
FLAGSTAFF      NOT AVBL
PAYSON         MOSUNNY   86  54  32 SW5       30.23S
PAGE           PTSUNNY   93  43  17 S5        30.12F
$$

AZZ009>014-017-310200-
NORTHEAST ARIZONA

CITY           SKY/WX    TMP DP  RH WIND       PRES   REMARKS
WINSLOW        NOT AVBL
SAINT JOHNS    MOSUNNY   78  53  41 S5        30.28S
SHOW LOW       MOSUNNY   72  50  46 E7        30.34R
$$

AZZ023-310200-
GREATER PHOENIX AREA

CITY           SKY/WX    TMP DP  RH WIND       PRES   REMARKS
PHOENIX        MOSUNNY  103  55  20 CALM      29.85S HX 101
GLENDALE       MOSUNNY  106  57  20 N5        29.87F HX 105
LUKE AFB       SUNNY    104  59  22 NE8       29.85F HX 104
DEER VALLEY    MOSUNNY  101  56  22 VRB3      29.88S HX 100
SCOTTSDALE     MOSUNNY  100  55  22 S3        29.90F
MESA-FALCON    MOSUNNY  102  55  21 W7        29.88S HX 101
MESA-GATEWAY   MOSUNNY  100  55  22 W7        29.90F
CHANDLER       MOSUNNY  100  55  22 SW8       29.87F
$$

AZZ027-028-310200-
SOUTHWEST MARICOPA COUNTY AND PINAL COUNTY

CITY           SKY/WX    TMP DP  RH WIND       PRES   REMARKS
CASA GRANDE    SUNNY    102  54  19 CALM      29.89S HX 100
$$

AZZ503-504-507>509-310200-
SOUTHEAST ARIZONA

CITY           SKY/WX    TMP DP  RH WIND       PRES   REMARKS
TUCSON         PTSUNNY   98  54  22 VRB3      30.00S
DAVIS-MONTHAN  PTSUNNY   96  56  26 SW2       29.99S
RYAN FIELD     SUNNY    100  57  23 SE6       29.98F
NOGALES        PTSUNNY   90  57  32 CALM      30.11R
SIERRA VISTA   PTSUNNY   85  58  39 W7        30.18S
SAFFORD        MOSUNNY   94  55  26 VRB5      30.03S
$$

AZZ020-021-025-026-031-310200-
SOUTHWEST ARIZONA

CITY           SKY/WX    TMP DP  RH WIND       PRES   REMARKS
YUMA           PTSUNNY  108  61  21 W8        29.80S HX 110
$$

CAZ031-033-041-043-047-048-061-310200-
SOUTHERN CALIFORNIA

CITY           SKY/WX    TMP DP  RH WIND       PRES   REMARKS
DOWNTOWN L.A.  SUNNY     77  64  64 W6        29.96R
L.A. AIRPORT   MOSUNNY   73  66  78 W13       29.97F
SAN DIEGO      PTSUNNY   74  64  71 NW8       29.99S
BURBANK        MOSUNNY   85  62  46 S12       29.95S
ONTARIO        PTSUNNY   89  64  43 W13G23    29.95R
RIVERSIDE      PTSUNNY   90  65  43 W9        29.96R
PALM SPRINGS   CLOUDY   104  60  23 E7        29.85F HX 105
EL CENTRO NAS  PTSUNNY   95  67  39 SW17G26   29.83R
IMPERIAL       PTSUNNY   95  67  39 SW16      29.81R
$$

NVZ020-UTZ003-310200-
SOUTHERN NEVADA-UTAH

CITY           SKY/WX    TMP DP  RH WIND       PRES   REMARKS
LAS VEGAS      NOT AVBL
SALT LAKE CITY MOSUNNY   91  23   8 NW9       30.19F
$$

NMZ009-TXZ055-310200-
NEW MEXICO-WEST TEXAS

CITY           SKY/WX    TMP DP  RH WIND       PRES   REMARKS
ALBUQUERQUE    CLOUDY    77  56  48 E15       30.29S
EL PASO        PTSUNNY   81  62  52 E12       30.15R
$$


........................KEY........................
SKY/WX - SKY CONDITION/WEATHER
TMP    - TEMPERATURE IN FAHRENHEIT
DP     - DEW POINT IN FAHRENHEIT
RH     - RELATIVE HUMIDITY IN PERCENT
WIND   - DIRECTION AND SPEED IN MILES PER HOUR (MPH)
VRB    - VARIABLE WIND DIRECTION
PRES   - MEAN SEA LEVEL PRESSURE IN INCHES OF MERCURY
         F - FALLING PRESSURE   R - RISING PRESSURE
         S - STEADY PRESSURE
VSB    - VISIBILITY IN MILES
HX     - HEAT INDEX IN FAHRENHEIT
WCI    - WIND CHILL INDEX IN FAHRENHEIT
TC     - TEMPERATURE IN CELSIUS WHICH IS ALSO KNOWN AS
         TEMPERATURE IN CENTIGRADE
AFB    - AIR FORCE BASE
         LUKE AFB IS LUKE AIR FORCE BASE
         DAVIS-MONTHAN IS DAVIS-MONTHAN AIR FORCE BASE
NAS    - NAVAL AIR STATION
         EL CENTRO NAS IS EL CENTRO NAVAL AIR STATION
N/A    - NOT AVAILABLE




USA.gov is the U.S. government's official web portal to all federal, state and local government web resources and services.